Latest Weather Observations for Young

IDN60801

Issued at 11:05 am EST Thursday 31 July 2014 (issued every 30 minutes, with the page automatically refreshed every 10 minutes)

About weather observations | Map of weather stations | Latest weather observations for NSW | Other Formats
Station Details ID: 073138 Name: YOUNG AIRPORT Lat: -34.25 Lon: 148.25 Height: 379.6 m
Data from the previous 72 hours. | See also: Recent months at Young
Date/Time
EST
Temp
°C
App
Temp
°C
Dew
Point
Rel
Hum
%
Delta-T
°C
Wind Press
QNH
hPa
Press
MSL
hPa
Rain
since 9 am
mm
Dir
 
Spd
km/h
Gust
km/h
Spd
kts
Gust
kts
31/11:00am 14.1 10.2 7.2 63 3.4 N 17 22 9 12 1013.7 1014.4 0.0
31/10:30am 13.2 8.7 7.0 66 3.1 N 20 26 11 14 1014.1 - 0.0
31/10:00am 12.5 8.7 7.6 72 2.4 N 17 24 9 13 1014.4 1015.1 0.0
31/09:30am 11.4 7.9 7.1 75 2.1 NNW 15 20 8 11 1014.7 - 0.0
31/09:00am 8.5 5.6 6.5 87 0.9 N 11 13 6 7 1014.9 1015.6 0.0
31/08:30am 4.1 2.8 4.0 99 0.0 CALM 0 0 0 0 1015.1 - 0.0
31/08:00am 0.6 -1.3 0.5 99 0.0 CALM 0 0 0 0 1015.3 1016.0 0.0
31/07:30am -0.7 -2.8 -0.8 99 0.0 CALM 0 0 0 0 1015.3 - 0.0
31/07:00am -0.8 -2.9 -0.9 99 0.0 CALM 0 0 0 0 1015.3 1016.0 0.0
31/06:30am -0.1 -2.1 -0.2 99 0.0 CALM 0 0 0 0 1015.3 - 0.0
31/06:00am -0.5 -2.6 -0.6 99 0.0 CALM 0 6 0 3 1015.3 1016.0 0.0
31/05:30am -0.3 -2.3 -0.4 99 0.0 CALM 0 0 0 0 1015.3 - 0.0
31/05:00am -0.2 -2.2 -0.3 99 0.0 CALM 0 0 0 0 1015.5 1016.2 0.0
31/04:30am 0.0 -2.0 -0.1 99 0.0 CALM 0 0 0 0 1015.6 - 0.0
31/04:00am 0.4 -2.3 0.3 99 0.0 SSW 4 6 2 3 1015.8 1016.5 0.0
31/03:30am 0.5 -1.4 0.4 99 0.0 CALM 0 0 0 0 1016.1 - 0.0
31/03:00am 0.8 -1.1 0.7 99 0.0 CALM 0 0 0 0 1016.2 1016.9 0.0
31/02:30am 0.6 -2.4 0.5 99 0.0 S 6 7 3 4 1016.4 - 0.0
31/02:00am 0.6 -2.4 0.5 99 0.0 S 6 7 3 4 1016.6 1017.3 0.0
31/01:30am 0.8 -1.1 0.7 99 0.0 CALM 0 0 0 0 1016.9 - 0.0
31/01:00am 1.4 -0.4 1.3 99 0.0 CALM 0 0 0 0 1017.0 1017.8 0.0
31/12:30am 1.4 -0.4 1.3 99 0.0 CALM 0 0 0 0 1017.2 - 0.0
31/12:00am 1.9 0.2 1.6 98 0.1 W 0 0 0 0 1017.6 1018.3 0.0
 
Date/Time
EST
Temp
°C
App
Temp
°C
Dew
Point
Rel
Hum
%
Delta-T
°C
Wind Press
QNH
hPa
Press
MSL
hPa
Rain
since 9 am
mm
Dir
 
Spd
km/h
Gust
km/h
Spd
kts
Gust
kts
30/11:30pm 2.3 0.6 2.0 98 0.1 CALM 0 0 0 0 1017.8 - 0.0
30/11:00pm 2.7 1.1 2.3 97 0.2 CALM 0 0 0 0 1017.9 1018.6 0.0
30/10:30pm 3.0 1.4 2.6 97 0.2 CALM 0 0 0 0 1017.9 - 0.0
30/10:00pm 3.5 2.0 3.1 97 0.2 CALM 0 0 0 0 1017.9 1018.6 0.0
30/09:30pm 4.0 2.5 3.1 94 0.4 CALM 0 0 0 0 1018.0 - 0.0
30/09:00pm 5.8 4.7 5.1 95 0.3 CALM 0 0 0 0 1017.9 1018.6 0.0
30/08:30pm 6.8 5.4 5.6 92 0.5 NW 2 7 1 4 1018.0 - 0.0
30/08:00pm 8.7 8.0 7.0 89 0.8 CALM 0 0 0 0 1018.1 1018.8 0.0
30/07:30pm 10.8 9.2 8.7 87 1.1 N 7 9 4 5 1018.1 - 0.0
30/07:00pm 12.9 11.1 9.4 79 1.8 NNW 9 11 5 6 1017.9 1018.6 0.0
30/06:30pm 12.8 11.0 9.3 79 1.8 NW 9 11 5 6 1017.9 - 0.0
30/06:00pm 13.7 12.0 9.7 77 2.1 NNW 9 11 5 6 1017.8 1018.5 0.0
30/05:30pm 13.6 11.9 9.8 78 2.0 NW 9 11 5 6 1017.7 - 0.0
30/05:00pm 14.2 12.5 9.8 75 2.3 NNW 9 13 5 7 1017.6 1018.3 0.0
30/04:30pm 14.9 12.4 9.7 71 2.7 NW 13 20 7 11 1017.6 - 0.0
30/04:00pm 14.9 13.0 10.5 75 2.4 NNW 11 17 6 9 1017.6 1018.3 0.0
30/03:30pm 15.2 12.5 10.4 73 2.6 N 15 20 8 11 1017.5 - 0.0
30/03:00pm 14.5 11.7 10.1 75 2.3 N 15 22 8 12 1017.7 1018.4 0.0
30/02:30pm 14.2 10.9 9.6 74 2.4 N 17 22 9 12 1018.0 - 0.0
30/02:00pm 14.0 11.1 9.6 75 2.3 N 15 20 8 11 1018.4 1019.1 0.0
30/01:30pm 14.2 11.3 9.8 75 2.3 NNW 15 24 8 13 1018.6 - 0.0
30/01:00pm 13.7 10.8 9.7 77 2.1 NW 15 19 8 10 1019.1 1019.9 0.0
30/12:30pm 13.6 10.7 9.5 76 2.1 NW 15 20 8 11 1019.5 - 0.0
30/12:00pm 13.6 11.0 9.5 76 2.1 NNW 13 19 7 10 1019.9 1020.7 0.0
30/11:30am 13.1 10.8 9.0 76 2.1 NNW 11 17 6 9 1020.4 - 0.0
30/11:00am 12.9 10.6 9.0 77 2.0 NW 11 17 6 9 1020.7 1021.4 0.0
30/10:30am 12.5 9.6 8.2 75 2.2 NW 13 17 7 9 1020.6 - 0.0
30/10:00am 12.1 9.2 8.2 77 2.0 NW 13 20 7 11 1020.6 1021.3 0.0
30/09:30am 11.8 9.8 8.5 80 1.7 NW 9 13 5 7 1020.5 - 0.0
30/09:00am 10.7 8.1 7.8 82 1.4 NNW 11 13 6 7 1020.1 1020.9 0.0
30/08:30am 9.9 7.1 7.0 82 1.4 NNW 11 15 6 8 1019.8 - 0.0
30/08:00am 9.3 7.2 6.7 84 1.2 NNW 7 9 4 5 1019.8 1020.6 0.0
30/07:30am 9.2 6.6 6.3 82 1.4 NNW 9 13 5 7 1019.6 - 0.0
30/07:00am 9.4 6.8 5.9 79 1.6 NW 9 15 5 8 1019.2 1020.0 0.0
30/06:30am 9.3 6.7 5.9 79 1.6 NW 9 13 5 7 1019.0 - 0.0
30/06:00am 9.0 6.0 5.9 81 1.4 WNW 11 15 6 8 1018.7 1019.4 0.0
30/05:30am 8.1 5.6 6.4 89 0.8 NW 9 15 5 8 1018.2 - 0.0
30/05:00am 4.5 3.2 4.2 98 0.1 CALM 0 0 0 0 1018.3 1019.0 0.0
30/04:30am 3.7 2.3 3.6 99 0.0 CALM 0 0 0 0 1018.3 - 0.0
30/04:00am 2.6 0.6 2.5 99 0.0 N 2 7 1 4 1018.4 1019.1 0.0
30/03:30am 1.2 -1.1 0.3 94 0.3 N 2 7 1 4 1018.2 - 0.0
30/03:00am 2.4 -0.5 1.7 95 0.3 N 6 7 3 4 1018.3 1019.0 0.0
30/02:30am 2.1 -1.1 0.9 92 0.5 N 7 7 4 4 1018.2 - 0.0
30/02:00am 3.2 0.0 2.9 98 0.1 N 9 11 5 6 1018.2 1018.9 0.0
30/01:30am 2.4 0.6 1.5 94 0.4 CALM 0 0 0 0 1018.4 - 0.0
30/01:00am 3.9 1.0 2.7 92 0.5 N 7 9 4 5 1018.3 1019.0 0.0
30/12:30am 5.5 2.1 3.8 89 0.7 N 11 13 6 7 1018.3 - 0.0
30/12:00am 5.9 3.5 4.1 88 0.8 NW 6 7 3 4 1018.3 1019.0 0.0
 
Date/Time
EST
Temp
°C
App
Temp
°C
Dew
Point
Rel
Hum
%
Delta-T
°C
Wind Press
QNH
hPa
Press
MSL
hPa
Rain
since 9 am
mm
Dir
 
Spd
km/h
Gust
km/h
Spd
kts
Gust
kts
29/11:30pm 6.2 3.8 4.5 89 0.7 W 6 9 3 5 1018.3 - 0.0
29/11:00pm 5.3 2.8 5.0 98 0.1 W 7 11 4 6 1018.4 1019.1 0.0
29/10:30pm 2.3 0.2 1.7 96 0.2 NNW 2 6 1 3 1018.4 - 0.0
29/10:00pm 2.9 1.3 2.3 96 0.2 CALM 0 0 0 0 1018.2 1018.9 0.0
29/09:30pm 2.9 1.3 2.2 95 0.3 CALM 0 0 0 0 1018.0 - 0.0
29/09:00pm 3.4 1.8 2.4 93 0.4 CALM 0 0 0 0 1018.0 1018.7 0.0
29/08:30pm 4.1 2.6 2.9 92 0.5 CALM 0 0 0 0 1017.9 - 0.0
29/08:00pm 4.9 3.5 3.4 90 0.6 CALM 0 0 0 0 1017.8 1018.5 0.0
29/07:30pm 5.6 4.3 3.9 89 0.7 CALM 0 0 0 0 1017.6 - 0.0
29/07:00pm 7.7 5.2 4.7 81 1.3 N 7 9 4 5 1017.5 1018.2 0.0
29/06:30pm 9.6 7.2 5.4 75 1.9 N 7 9 4 5 1017.3 - 0.0
29/06:00pm 11.3 8.6 5.6 68 2.7 NNW 9 11 5 6 1017.2 1018.0 0.0
29/05:30pm 13.5 10.2 6.4 62 3.5 NW 13 17 7 9 1016.8 - 0.0
29/05:00pm 15.0 11.7 6.3 56 4.3 NW 13 20 7 11 1016.7 1017.5 0.0
29/04:30pm 16.0 12.5 7.0 55 4.5 NW 15 20 8 11 1016.3 - 0.0
29/04:00pm 16.6 12.3 7.0 53 4.8 WNW 19 30 10 16 1016.4 1017.1 0.0
29/03:30pm 16.8 12.2 6.3 50 5.2 NW 20 30 11 16 1016.2 - 0.0
29/03:00pm 16.8 12.3 6.3 50 5.2 NW 19 33 10 18 1016.3 1017.0 0.0
29/02:30pm 16.8 12.4 7.2 53 4.9 NW 20 32 11 17 1016.5 - 0.0
29/02:00pm 16.3 11.6 6.2 51 5.0 NW 20 35 11 19 1016.4 1017.1 0.0
29/01:30pm 15.9 11.4 6.3 53 4.8 NNW 19 32 10 17 1017.0 - 0.0
29/01:00pm 15.6 11.3 7.1 57 4.3 NW 19 28 10 15 1017.7 1018.4 0.0
29/12:30pm 14.5 9.8 5.0 53 4.5 WNW 19 30 10 16 1018.4 - 0.0
29/12:00pm 14.4 9.6 5.7 56 4.2 NW 20 30 11 16 1018.7 1019.4 0.0
29/11:30am 14.2 9.5 5.0 54 4.4 NW 19 26 10 14 1019.3 - 0.0
29/11:00am 13.8 8.9 3.9 51 4.6 NNW 19 24 10 13 1019.6 1020.4 0.0
29/10:30am 12.6 9.3 6.6 67 2.9 N 13 17 7 9 1019.7 - 0.0
29/10:00am 11.7 8.4 6.4 70 2.5 N 13 20 7 11 1019.3 1020.1 0.0
29/09:30am 9.7 6.8 6.4 80 1.6 N 11 13 6 7 1019.5 - 0.0
29/09:00am 8.4 6.5 6.5 88 0.9 N 6 9 3 5 1019.5 1020.3 0.0
29/08:30am 4.5 3.3 4.4 99 0.0 CALM 0 0 0 0 1019.4 - 0.0
29/08:00am 2.3 0.7 2.2 99 0.0 CALM 0 0 0 0 1019.3 1020.1 0.0
29/07:30am 1.3 -0.5 1.2 99 0.0 CALM 0 0 0 0 1019.1 - 0.0
29/07:00am 1.3 -0.5 1.2 99 0.0 CALM 0 0 0 0 1019.0 1019.8 0.0
29/06:30am 1.2 -0.6 1.1 99 0.0 CALM 0 0 0 0 1018.8 - 0.0
29/06:00am 1.3 -0.5 1.2 99 0.0 CALM 0 0 0 0 1018.7 1019.4 0.0
29/05:30am 1.7 0.0 1.6 99 0.0 CALM 0 6 0 3 1018.5 - 0.0
29/05:00am 1.5 -1.0 1.4 99 0.0 S 4 7 2 4 1018.5 1019.2 0.0
29/04:30am 1.6 -0.2 1.5 99 0.0 CALM 0 6 0 3 1018.5 - 0.0
29/04:00am 1.9 -0.6 1.8 99 0.0 S 4 7 2 4 1018.5 1019.2 0.0
29/03:30am 2.0 0.3 1.9 99 0.0 CALM 0 0 0 0 1018.4 - 0.0
29/03:00am 2.4 0.8 2.3 99 0.0 CALM 0 0 0 0 1018.3 1019.0 0.0
29/02:30am 2.7 1.1 2.6 99 0.0 CALM 0 0 0 0 1018.4 - 0.0
29/02:00am 3.0 1.5 2.9 99 0.0 CALM 0 0 0 0 1018.5 1019.2 0.0
29/01:30am 3.1 1.6 3.0 99 0.0 CALM 0 0 0 0 1018.6 - 0.0
29/01:00am 2.8 1.2 2.7 99 0.0 CALM 0 0 0 0 1018.8 1019.5 0.0
29/12:30am 2.8 1.2 2.7 99 0.0 CALM 0 0 0 0 1019.1 - 0.0
29/12:00am 3.0 1.4 2.7 98 0.1 CALM 0 0 0 0 1019.3 1020.1 0.0
 
Date/Time
EST
Temp
°C
App
Temp
°C
Dew
Point
Rel
Hum
%
Delta-T
°C
Wind Press
QNH
hPa
Press
MSL
hPa
Rain
since 9 am
mm
Dir
 
Spd
km/h
Gust
km/h
Spd
kts
Gust
kts
28/11:30pm 3.1 1.5 2.7 97 0.2 CALM 0 0 0 0 1019.6 - 0.0
28/11:00pm 3.4 1.9 3.0 97 0.2 CALM 0 0 0 0 1019.8 1020.6 0.0
28/10:30pm 3.6 2.1 3.2 97 0.2 CALM 0 0 0 0 1020.0 - 0.0
28/10:00pm 3.8 2.4 3.5 98 0.1 CALM 0 0 0 0 1020.0 1020.8 0.0
28/09:30pm 3.4 0.8 3.0 97 0.2 SSW 6 7 3 4 1020.1 - 0.0
28/09:00pm 3.5 1.6 2.8 95 0.3 S 2 6 1 3 1020.1 1020.9 0.0
28/08:30pm 4.4 1.9 3.8 96 0.3 S 6 7 3 4 1019.8 - 0.0
28/08:00pm 4.4 3.0 3.4 93 0.4 CALM 0 0 0 0 1019.9 1020.7 0.0
28/07:30pm 5.6 3.3 4.6 93 0.4 S 6 7 3 4 1019.8 - 0.0
28/07:00pm 6.6 5.4 4.8 88 0.8 CALM 0 0 0 0 1019.9 1020.7 0.0
28/06:30pm 7.8 5.7 5.8 87 0.9 N 6 7 3 4 1019.7 - 0.0
28/06:00pm 7.5 5.0 4.8 83 1.2 N 7 9 4 5 1019.6 1020.4 0.0
28/05:30pm 9.6 7.4 6.1 79 1.6 N 7 9 4 5 1019.4 - 0.0
28/05:00pm 11.9 9.3 6.2 68 2.7 NNW 9 13 5 7 1019.4 1020.2 0.0
28/04:30pm 13.3 10.9 6.9 65 3.2 NNW 9 11 5 6 1019.3 - 0.0
28/04:00pm 14.8 11.2 6.6 58 4.1 NW 15 20 8 11 1019.3 1020.1 0.0
28/03:30pm 14.7 11.5 7.0 60 3.8 NW 13 20 7 11 1019.3 - 0.0
28/03:00pm 14.3 10.3 6.6 60 3.8 NW 17 26 9 14 1019.4 1020.2 0.0
28/02:30pm 14.5 10.9 6.8 60 3.8 WNW 15 22 8 12 1019.5 - 0.0
28/02:00pm 15.2 11.7 7.2 59 4.0 NW 15 20 8 11 1019.8 1020.6 0.0
28/01:30pm 14.6 10.9 6.4 58 4.0 NW 15 24 8 13 1020.1 - 0.0
28/01:00pm 13.6 11.0 7.6 67 3.0 NW 11 19 6 10 1020.4 1021.1 0.0
28/12:30pm 13.6 10.5 7.4 66 3.1 NNW 13 19 7 10 1021.1 - 0.0
28/12:00pm 13.0 10.4 7.9 71 2.6 NNW 11 15 6 8 1021.6 1022.4 0.0
28/11:30am 12.7 10.1 7.6 71 2.5 N 11 17 6 9 1022.1 - 0.0

Other Formats:

Comma delimited format used in spreadsheet applications
http://www.bom.gov.au/fwo/IDN60801/IDN60801.94712.axf

JavaScript Object Notation format (JSON) in row-major order
http://www.bom.gov.au/fwo/IDN60801/IDN60801.94712.json